Volver al catálogo

SHIYAN 32-02

ActivoCienciaVLEO
NORAD 66378·PAYLOAD·🇨🇳 China

Lanzado Nov 8, 2025 desde Yellow Sea Launch Area

Loading…

Próximos Pases (próximas 24 horas)

TLE

ActualizadoSource: Space-Track

Época: Sep 14, 2026, 14:33 UTC

1 66378U 25255C   26257.60693038  .00012752  00000-0  30493-3 0  9995
2 66378  52.9927 309.9975 0016595 135.0183 225.2168 15.41744901 47750

Sigue SHIYAN 32-02 en tiempo real con AllMySat

Download on the App Store